AMQ132 EPKT-LGRP

Flight info

Callsign AMQ132
Flight time N/A
Altitude 23000
Route REGTO T195 RAZEC N133 KEKED/N0442F350 DCT PERIT DCT NARKA DCT LOMOS DCT NIKTI DCT MES UN139 LURUS UL995 CODIC
Aircraft A320/M-SDE3FGHIRWY/LB1

Departure

Time 2026-05-04 11:56
Airport Katowice Wojciech Korfanty International Airport (EPKT)

Arrival

Time N/A
Airport Rhodes International Airport "Diagoras" (LGRP)
Time Latitude Longitude Altitude Speed Heading
2026-05-04 11:34 50.47151 19.07015 980 ft 0 kts 180°
2026-05-04 11:48 50.47155 19.07015 980 ft 1 kts 180°
2026-05-04 11:48 50.47169 19.07015 980 ft 2 kts 184°
2026-05-04 11:49 50.47184 19.07017 980 ft 2 kts 182°
2026-05-04 11:49 50.47199 19.07018 979 ft 2 kts 183°
2026-05-04 11:49 50.47214 19.07019 979 ft 2 kts 182°
2026-05-04 11:49 50.47228 19.07020 979 ft 0 kts 182°
2026-05-04 11:50 50.47234 19.07021 979 ft 1 kts 151°
2026-05-04 11:50 50.47238 19.07013 979 ft 0 kts 96°
2026-05-04 11:50 50.47238 19.07004 978 ft 1 kts 89°
2026-05-04 11:50 50.47238 19.07000 978 ft 0 kts 90°
2026-05-04 11:51 50.47238 19.07001 978 ft 0 kts 90°
2026-05-04 11:52 50.47237 19.07097 980 ft 23 kts 91°
2026-05-04 11:52 50.47236 19.07345 982 ft 22 kts 91°
2026-05-04 11:52 50.47235 19.07582 983 ft 21 kts 89°
2026-05-04 11:52 50.47237 19.07808 983 ft 20 kts 92°
2026-05-04 11:53 50.47236 19.08029 983 ft 20 kts 90°
2026-05-04 11:53 50.47235 19.08272 985 ft 23 kts 90°
2026-05-04 11:53 50.47235 19.08549 985 ft 26 kts 92°
2026-05-04 11:53 50.47235 19.08822 988 ft 24 kts 88°
2026-05-04 11:55 50.47601 19.07907 978 ft 131 kts 269°
2026-05-04 11:55 50.47610 19.06232 1192 ft 165 kts 268°
2026-05-04 11:56 50.47625 19.04410 1816 ft 169 kts 268°
2026-05-04 11:56 50.47639 19.02577 2573 ft 169 kts 268°
2026-05-04 11:56 50.47639 19.00747 3167 ft 174 kts 267°
2026-05-04 11:56 50.47375 18.98870 3479 ft 194 kts 234°
2026-05-04 11:57 50.46249 18.97634 3914 ft 215 kts 193°
2026-05-04 11:57 50.44708 18.97930 4383 ft 241 kts 155°
2026-05-04 11:57 50.43398 18.99681 4898 ft 263 kts 133°
2026-05-04 11:57 50.42218 19.02001 5490 ft 279 kts 130°
2026-05-04 11:58 50.41018 19.04376 6316 ft 284 kts 131°
2026-05-04 11:58 50.39750 19.06749 7215 ft 287 kts 133°
2026-05-04 11:58 50.38439 19.09091 8091 ft 290 kts 134°
2026-05-04 11:58 50.37087 19.11427 8963 ft 294 kts 135°
2026-05-04 11:59 50.35703 19.13773 9832 ft 297 kts 135°
2026-05-04 11:59 50.34278 19.16157 10644 ft 303 kts 136°
2026-05-04 11:59 50.32815 19.18585 11120 ft 320 kts 136°
2026-05-04 11:59 50.31233 19.21197 11534 ft 338 kts 136°
2026-05-04 12:00 50.29584 19.23912 12030 ft 352 kts 136°
2026-05-04 12:00 50.27894 19.26697 12790 ft 357 kts 136°
2026-05-04 12:00 50.26100 19.29339 13558 ft 359 kts 143°
2026-05-04 12:00 50.24121 19.31720 14297 ft 363 kts 146°
2026-05-04 12:01 50.22087 19.34068 15003 ft 368 kts 146°
2026-05-04 12:01 50.20027 19.36456 15698 ft 373 kts 146°
2026-05-04 12:02 50.07208 19.51658 19531 ft 401 kts 145°
2026-05-04 12:03 50.04995 19.54295 20116 ft 406 kts 145°
2026-05-04 12:03 50.02761 19.56953 20688 ft 410 kts 145°
2026-05-04 12:03 50.00496 19.59646 21265 ft 414 kts 144°
2026-05-04 12:03 49.98190 19.62386 21839 ft 417 kts 144°
2026-05-04 12:04 49.95874 19.65133 22372 ft 422 kts 145°
2026-05-04 12:04 49.93559 19.67886 22831 ft 426 kts 145°
2026-05-04 12:04 49.91204 19.70687 23014 ft 428 kts 145°
2026-05-04 12:04 49.88835 19.73498 23015 ft 427 kts 145°
2026-05-04 12:05 49.86489 19.76261 23020 ft 427 kts 145°
2026-05-04 12:05 49.84138 19.79025 23022 ft 427 kts 145°
2026-05-04 12:05 49.81795 19.81776 23024 ft 427 kts 145°
2026-05-04 12:05 49.79437 19.84544 23024 ft 427 kts 145°
2026-05-04 12:06 49.77056 19.87338 23024 ft 427 kts 145°
2026-05-04 12:06 49.74688 19.90115 23024 ft 427 kts 145°
2026-05-04 12:06 49.72335 19.92871 23024 ft 427 kts 145°
2026-05-04 12:06 49.69978 19.95629 23025 ft 427 kts 145°
2026-05-04 12:07 49.67627 19.98377 23024 ft 427 kts 145°
2026-05-04 12:07 49.65255 20.01146 23024 ft 427 kts 145°
2026-05-04 12:07 49.62893 20.03898 23024 ft 427 kts 145°
2026-05-04 12:07 49.60540 20.06637 23024 ft 427 kts 145°
2026-05-04 12:08 49.58181 20.09380 23025 ft 427 kts 145°
2026-05-04 12:08 49.55804 20.12142 23024 ft 427 kts 145°
2026-05-04 12:08 49.53444 20.14880 23025 ft 427 kts 145°
2026-05-04 12:08 49.51079 20.17620 23024 ft 427 kts 145°
2026-05-04 12:09 49.48723 20.20347 23025 ft 427 kts 145°
2026-05-04 12:09 49.46371 20.23064 23024 ft 427 kts 145°
2026-05-04 12:09 49.43979 20.25825 23024 ft 426 kts 145°
2026-05-04 12:09 49.41633 20.28530 23025 ft 427 kts 145°
2026-05-04 12:10 49.39262 20.31261 23024 ft 427 kts 145°
2026-05-04 12:10 49.36877 20.34003 23025 ft 427 kts 145°
2026-05-04 12:10 49.34510 20.36722 23024 ft 427 kts 145°
2026-05-04 12:10 49.32143 20.39437 23024 ft 427 kts 145°
2026-05-04 12:11 49.29763 20.42163 23025 ft 427 kts 145°
2026-05-04 12:11 49.27399 20.44870 23025 ft 427 kts 145°
2026-05-04 12:11 49.25042 20.47564 23025 ft 427 kts 145°
2026-05-04 12:11 49.22675 20.50266 23025 ft 427 kts 145°
2026-05-04 12:12 49.20281 20.52996 23025 ft 427 kts 145°
2026-05-04 12:12 49.17912 20.55693 23025 ft 427 kts 145°
2026-05-04 12:12 49.15545 20.58386 23025 ft 427 kts 145°
2026-05-04 12:12 49.13179 20.61074 23025 ft 427 kts 145°
2026-05-04 12:13 49.10772 20.63804 23024 ft 427 kts 145°
2026-05-04 12:14 48.94046 20.82725 23024 ft 435 kts 144°
2026-05-04 12:15 48.91617 20.85457 23024 ft 435 kts 144°
2026-05-04 12:15 48.89220 20.88148 23023 ft 435 kts 144°
2026-05-04 12:15 48.86782 20.90866 23024 ft 435 kts 144°
2026-05-04 12:15 48.84334 20.93589 23025 ft 434 kts 144°
2026-05-04 12:16 48.81929 20.96266 23025 ft 433 kts 144°
2026-05-04 12:16 48.79483 20.98990 23025 ft 433 kts 144°
2026-05-04 12:16 48.77061 21.01689 23025 ft 432 kts 144°
2026-05-04 12:16 48.74669 21.04351 23025 ft 431 kts 144°
2026-05-04 12:17 48.72266 21.07025 23025 ft 430 kts 144°
2026-05-04 12:17 48.69863 21.09696 23025 ft 429 kts 144°
2026-05-04 12:17 48.67471 21.12352 23025 ft 428 kts 144°
2026-05-04 12:17 48.65061 21.15025 23025 ft 428 kts 144°
2026-05-04 12:18 48.62676 21.17667 23025 ft 428 kts 144°
2026-05-04 12:18 48.60262 21.20338 23024 ft 428 kts 144°
2026-05-04 12:18 48.57867 21.22984 23024 ft 428 kts 144°
2026-05-04 12:18 48.55491 21.25599 23024 ft 428 kts 144°
2026-05-04 12:19 48.52968 21.28005 23023 ft 428 kts 151°
2026-05-04 12:19 48.50316 21.29922 23023 ft 427 kts 159°
2026-05-04 12:19 48.47536 21.31384 23026 ft 426 kts 163°
2026-05-04 12:19 48.44688 21.32685 23043 ft 428 kts 164°
2026-05-04 12:20 48.41804 21.33968 23408 ft 433 kts 164°
2026-05-04 12:20 48.38932 21.35250 24046 ft 433 kts 164°
2026-05-04 12:20 48.36049 21.36545 24578 ft 436 kts 164°
2026-05-04 12:20 48.33146 21.37854 25044 ft 439 kts 164°
2026-05-04 12:21 48.30213 21.39181 25498 ft 443 kts 164°
2026-05-04 12:21 48.27277 21.40510 25937 ft 446 kts 164°
2026-05-04 12:21 48.24301 21.41858 26369 ft 449 kts 164°
2026-05-04 12:21 48.21282 21.43223 26789 ft 453 kts 163°
2026-05-04 12:22 48.18283 21.44577 27191 ft 456 kts 163°
2026-05-04 12:22 48.15259 21.45942 27586 ft 458 kts 163°
2026-05-04 12:22 48.12208 21.47318 27968 ft 461 kts 163°
2026-05-04 12:22 48.09136 21.48702 28369 ft 463 kts 163°
2026-05-04 12:23 48.06066 21.50084 28881 ft 462 kts 163°
2026-05-04 12:23 48.02977 21.51473 29407 ft 461 kts 163°
2026-05-04 12:23 48.00016 21.52801 29882 ft 461 kts 163°
2026-05-04 12:23 47.96866 21.54214 30363 ft 460 kts 163°
2026-05-04 12:24 47.93822 21.55576 30829 ft 460 kts 163°
2026-05-04 12:24 47.90769 21.56940 31302 ft 459 kts 163°
2026-05-04 12:24 47.87719 21.58301 31739 ft 458 kts 163°
2026-05-04 12:24 47.84687 21.59647 32145 ft 458 kts 163°
2026-05-04 12:25 47.81618 21.61009 32543 ft 458 kts 163°
2026-05-04 12:25 47.78608 21.62344 32925 ft 458 kts 163°
2026-05-04 12:25 47.75572 21.63689 33307 ft 457 kts 163°
2026-05-04 12:25 47.72829 21.64903 33629 ft 457 kts 163°
2026-05-04 12:26 47.69789 21.66253 33923 ft 458 kts 164°
2026-05-04 12:26 47.66759 21.67608 34189 ft 460 kts 164°
2026-05-04 12:26 47.63679 21.68981 34447 ft 461 kts 164°
2026-05-04 12:26 47.60596 21.70349 34697 ft 463 kts 164°
2026-05-04 12:27 47.57530 21.71704 34959 ft 464 kts 164°
2026-05-04 12:27 47.54477 21.73049 35122 ft 465 kts 164°
2026-05-04 12:27 47.48683 21.75597 35131 ft 465 kts 165°
2026-05-04 12:28 47.42514 21.78298 35136 ft 465 kts 164°
2026-05-04 12:28 47.36326 21.81002 35137 ft 465 kts 164°
2026-05-04 12:29 47.30152 21.83694 35136 ft 465 kts 164°
2026-05-04 12:29 47.23949 21.86389 35135 ft 466 kts 164°
2026-05-04 12:30 47.17767 21.89074 35136 ft 465 kts 164°
2026-05-04 12:30 47.11563 21.91756 35138 ft 465 kts 164°
2026-05-04 12:31 47.05483 21.94375 35136 ft 465 kts 164°
2026-05-04 12:31 46.99422 21.96983 35135 ft 464 kts 165°
2026-05-04 12:32 46.90149 22.00966 35136 ft 461 kts 165°
2026-05-04 12:33 46.84057 22.03559 35135 ft 459 kts 165°
2026-05-04 12:33 46.77951 22.06149 35136 ft 459 kts 165°
2026-05-04 12:34 46.71836 22.08744 35137 ft 459 kts 165°
2026-05-04 12:34 46.65725 22.11337 35137 ft 459 kts 165°
2026-05-04 12:35 46.59596 22.13931 35137 ft 459 kts 165°
2026-05-04 12:35 46.53487 22.16512 35136 ft 459 kts 165°
2026-05-04 12:36 46.47407 22.19076 35137 ft 459 kts 165°
2026-05-04 12:36 46.41259 22.21664 35137 ft 459 kts 165°
2026-05-04 12:37 46.35409 22.24122 35134 ft 459 kts 165°
2026-05-04 12:37 46.29256 22.26697 35136 ft 460 kts 165°
2026-05-04 12:38 46.23555 22.29078 35135 ft 459 kts 165°
2026-05-04 12:38 46.17856 22.31453 35137 ft 459 kts 165°
2026-05-04 12:39 46.11747 22.33995 35137 ft 459 kts 165°
2026-05-04 12:39 46.06257 22.36272 35137 ft 459 kts 165°
2026-05-04 12:40 46.00168 22.38795 35136 ft 459 kts 165°
2026-05-04 12:40 45.94181 22.41266 35137 ft 459 kts 165°
2026-05-04 12:41 45.88076 22.43779 35135 ft 459 kts 165°
2026-05-04 12:41 45.82194 22.46188 35137 ft 459 kts 165°
2026-05-04 12:42 45.78395 22.47743 35136 ft 459 kts 165°
2026-05-04 12:42 45.72286 22.50243 35138 ft 459 kts 165°
2026-05-04 12:43 45.68196 22.51914 35135 ft 459 kts 165°
2026-05-04 12:43 45.62058 22.54421 35137 ft 460 kts 165°
2026-05-04 12:44 45.55939 22.56913 35137 ft 459 kts 165°
2026-05-04 12:44 45.52488 22.58314 35137 ft 459 kts 165°
2026-05-04 12:45 45.46347 22.60806 35136 ft 459 kts 165°
2026-05-04 12:45 45.42370 22.62417 35135 ft 459 kts 165°
2026-05-04 12:46 45.36440 22.64814 35132 ft 459 kts 165°
2026-05-04 12:46 45.32491 22.66418 35131 ft 459 kts 166°
2026-05-04 12:47 45.26827 22.68727 35128 ft 459 kts 166°
2026-05-04 12:47 45.21353 22.70939 35125 ft 459 kts 166°
2026-05-04 12:48 45.15474 22.73303 35119 ft 459 kts 166°
2026-05-04 12:48 45.11451 22.74915 35113 ft 459 kts 166°
2026-05-04 12:49 45.06577 22.76866 35108 ft 457 kts 166°
2026-05-04 12:49 45.01038 22.79081 35100 ft 454 kts 166°
2026-05-04 12:50 44.96653 22.80830 35094 ft 452 kts 166°
2026-05-04 12:50 44.91114 22.83031 35089 ft 449 kts 167°
2026-05-04 12:51 44.87046 22.84642 35087 ft 447 kts 167°
2026-05-04 12:51 44.81093 22.86990 35085 ft 446 kts 167°
2026-05-04 12:52 44.75129 22.89344 35085 ft 444 kts 167°
2026-05-04 12:52 44.69242 22.91667 35083 ft 443 kts 167°
2026-05-04 12:53 44.65292 22.93222 35086 ft 441 kts 167°
2026-05-04 12:53 44.59417 22.95529 35084 ft 439 kts 167°
2026-05-04 12:54 44.55435 22.97091 35082 ft 438 kts 167°
2026-05-04 12:54 44.49579 22.99385 35085 ft 436 kts 167°
2026-05-04 12:55 44.46066 23.00761 35085 ft 435 kts 167°
2026-05-04 12:55 44.40293 23.03013 35084 ft 433 kts 167°
2026-05-04 12:56 44.36669 23.04425 35086 ft 431 kts 167°
2026-05-04 12:56 44.30897 23.06669 35082 ft 432 kts 167°
2026-05-04 12:57 44.26809 23.08257 35084 ft 431 kts 167°
2026-05-04 12:57 44.21051 23.10491 35085 ft 431 kts 167°
2026-05-04 12:58 44.17395 23.11907 35085 ft 431 kts 167°
2026-05-04 12:58 44.11635 23.14137 35082 ft 431 kts 167°
2026-05-04 12:59 44.08078 23.15508 35081 ft 431 kts 167°
2026-05-04 12:59 44.02310 23.17728 35084 ft 431 kts 167°
2026-05-04 13:00 43.98517 23.19185 35083 ft 431 kts 167°
2026-05-04 13:00 43.93293 23.21192 35084 ft 431 kts 167°
2026-05-04 13:01 43.89062 23.22813 35082 ft 431 kts 167°
2026-05-04 13:01 43.83746 23.24840 35083 ft 431 kts 167°
2026-05-04 13:02 43.78008 23.27087 35085 ft 431 kts 166°
2026-05-04 13:02 43.74179 23.28603 35084 ft 431 kts 166°
2026-05-04 13:03 43.68438 23.30872 35083 ft 431 kts 167°
2026-05-04 13:03 43.62704 23.33132 35084 ft 431 kts 167°
2026-05-04 13:04 43.56928 23.35403 35095 ft 431 kts 167°
2026-05-04 13:04 43.51881 23.37383 35109 ft 430 kts 167°
2026-05-04 13:05 43.46131 23.39633 35122 ft 431 kts 167°
2026-05-04 13:05 43.40375 23.41879 35126 ft 430 kts 167°
2026-05-04 13:06 43.34639 23.44116 35122 ft 431 kts 167°
2026-05-04 13:06 43.28896 23.46353 35113 ft 431 kts 167°
2026-05-04 13:07 43.23137 23.48587 35113 ft 431 kts 167°
2026-05-04 13:07 43.17384 23.50818 35112 ft 430 kts 167°
2026-05-04 13:08 43.11633 23.53044 35110 ft 431 kts 167°
2026-05-04 13:08 43.05891 23.55261 35112 ft 431 kts 167°
2026-05-04 13:09 43.00168 23.57469 35109 ft 432 kts 167°
2026-05-04 13:09 42.94370 23.59697 35109 ft 434 kts 167°
2026-05-04 13:10 42.88678 23.61882 35110 ft 438 kts 168°
2026-05-04 13:10 42.82812 23.64118 35110 ft 440 kts 168°
2026-05-04 13:11 42.76908 23.66380 35111 ft 440 kts 168°
2026-05-04 13:11 42.71048 23.68643 35112 ft 440 kts 168°
2026-05-04 13:12 42.65153 23.70898 35112 ft 441 kts 168°
2026-05-04 13:12 42.59261 23.73140 35112 ft 440 kts 168°
2026-05-04 13:13 42.53397 23.75367 35112 ft 440 kts 168°
2026-05-04 13:13 42.47510 23.77596 35112 ft 440 kts 168°
2026-05-04 13:14 42.41643 23.79813 35112 ft 441 kts 168°
2026-05-04 13:14 42.35757 23.82033 35113 ft 440 kts 168°
2026-05-04 13:15 42.30590 23.83977 35112 ft 440 kts 168°
2026-05-04 13:15 42.24730 23.86177 35112 ft 441 kts 168°
2026-05-04 13:16 42.18840 23.88387 35111 ft 441 kts 168°
2026-05-04 13:16 42.12948 23.90593 35112 ft 441 kts 168°
2026-05-04 13:17 42.07582 23.92596 35112 ft 441 kts 168°
2026-05-04 13:17 42.01804 23.94750 35109 ft 441 kts 168°
2026-05-04 13:18 41.96233 23.96823 35099 ft 441 kts 168°
2026-05-04 13:18 41.93004 23.98024 35094 ft 441 kts 168°
2026-05-04 13:19 41.87511 24.00061 35079 ft 441 kts 168°
2026-05-04 13:19 41.83925 24.01383 35070 ft 441 kts 168°
2026-05-04 13:20 41.78030 24.03559 35061 ft 441 kts 168°
2026-05-04 13:20 41.72127 24.05739 35059 ft 441 kts 168°
2026-05-04 13:21 41.67099 24.07593 35057 ft 441 kts 168°
2026-05-04 13:21 41.62360 24.09339 35057 ft 441 kts 168°
2026-05-04 13:22 41.58491 24.10761 35058 ft 441 kts 168°
2026-05-04 13:22 41.52675 24.13307 35056 ft 444 kts 162°
2026-05-04 13:23 41.46995 24.16509 35058 ft 445 kts 160°
2026-05-04 13:23 41.42416 24.19123 35059 ft 445 kts 160°
2026-05-04 13:24 41.37636 24.21844 35057 ft 444 kts 160°
2026-05-04 13:24 41.33917 24.23956 35055 ft 444 kts 160°
2026-05-04 13:25 41.25428 24.28762 35057 ft 445 kts 160°
2026-05-04 13:25 41.19753 24.31967 35056 ft 445 kts 160°
2026-05-04 13:26 41.14065 24.35175 35058 ft 445 kts 160°
2026-05-04 13:26 41.10362 24.37259 35059 ft 444 kts 160°
2026-05-04 13:27 41.04678 24.40456 35059 ft 442 kts 161°
2026-05-04 13:27 41.00820 24.42623 35060 ft 439 kts 161°
2026-05-04 13:28 40.95249 24.45745 35059 ft 435 kts 161°
2026-05-04 13:28 40.89683 24.48855 35058 ft 434 kts 161°
2026-05-04 13:29 40.84164 24.51921 35057 ft 434 kts 161°
2026-05-04 13:29 40.78621 24.54999 35058 ft 433 kts 161°
2026-05-04 13:30 40.73074 24.58079 35058 ft 434 kts 161°
2026-05-04 13:30 40.67535 24.61153 35057 ft 434 kts 161°
2026-05-04 13:31 40.63104 24.63608 35058 ft 434 kts 161°
2026-05-04 13:31 40.57586 24.66672 35057 ft 433 kts 161°
2026-05-04 13:32 40.53089 24.69180 35058 ft 433 kts 161°
2026-05-04 13:32 40.47842 24.72088 35058 ft 433 kts 162°
2026-05-04 13:33 40.44150 24.74126 35058 ft 433 kts 162°
2026-05-04 13:33 40.38609 24.77176 35058 ft 433 kts 162°
2026-05-04 13:34 40.33053 24.80227 35062 ft 433 kts 162°
2026-05-04 13:34 40.28865 24.82522 35067 ft 433 kts 162°
2026-05-04 13:35 40.20826 24.86919 35084 ft 433 kts 162°
2026-05-04 13:36 40.15297 24.89937 35096 ft 433 kts 162°
2026-05-04 13:36 40.11808 24.91839 35101 ft 433 kts 162°
2026-05-04 13:37 40.08364 24.93713 35105 ft 433 kts 162°
2026-05-04 13:37 40.02821 24.96727 35108 ft 433 kts 162°
2026-05-04 13:38 39.97280 24.99732 35110 ft 434 kts 161°
2026-05-04 13:38 39.91729 25.02738 35110 ft 436 kts 161°